Fayetteville, NC

7:36 AM EST on December 04, 2016 (GMT -0500)
Simmons Army Air Field

Weather History for KFBG - July, 2012

Change the Weather History Date:

Sunday, July 1, 2012

  Actual Average Record
Temperature  
Mean Temperature 89 °F -  
Max Temperature 103 °F 87 °F 103 °F (2012)
Min Temperature 77 °F 70 °F 65 °F (2008)
Cooling Degree Days 24    
Growing Degree Days 39 (Base 50)    
Moisture  
Dew Point 73 °F    
Average Humidity 67    
Maximum Humidity 85    
Minimum Humidity 39    
Precipitation  
Precipitation 0.00 in - - ()
Sea Level Pressure  
Sea Level Pressure 29.92 in    
Wind  
Wind Speed 6 mph (SSW)    
Max Wind Speed 17 mph    
Max Gust Speed 31 mph    
Visibility 10 miles    
Events Rain , Thunderstorm    
Averages and records for this station are not official NWS values.
T = Trace of Precipitation, MM = Missing Value Source: NWS Daily Summary

Daily Weather History Graph

Daily Weather History Graph

Search for Another Location

Airport or City:

Trip Planner

Search our weather history database for the weather conditions in past years. The results will help you decide how hot, cold, wet, or windy it might be!

Date:

Astronomy

Jul. 01, 2012 Rise Set
Actual Time 6:05 AM EDT 8:34 PM EDT
Civil Twilight 5:35 AM EDT 9:03 PM EDT
Nautical Twilight 4:59 AM EDT 9:40 PM EDT
Astronomical Twilight 4:18 AM EDT 10:20 PM EDT
Moon 6:35 PM EDT (7/1) 3:49 AM EDT (7/1)
Length of Visible Light 15h 28m
Length of Day
14h 28m
Waxing Gibbous, 94% of the Moon is Illuminated
Jul 1
Waxing Gibbous
Jul 3
Full
Jul 10
Last Quarter
Jul 19
New
Jul 26
First Quarter

Hourly Weather History & Observations

Time (EDT) Temp. Heat Index Dew Point Humidity Pressure Visibility Wind Dir Wind Speed Gust Speed Precip Events Conditions
12:55 AM 87.4 °F 97.7 °F 75.9 °F 68% 29.88 in 10.0 mi Variable 3.5 mph - N/A   Clear
1:55 AM 85.6 °F 94.6 °F 75.2 °F 71% 29.89 in 10.0 mi North 6.9 mph - N/A   Clear
2:55 AM 84.9 °F 92.5 °F 74.3 °F 70% 29.89 in 10.0 mi South 3.5 mph - N/A   Partly Cloudy
3:55 AM 84.7 °F 94.0 °F 76.1 °F 75% 29.87 in 10.0 mi South 4.6 mph - N/A   Partly Cloudy
4:55 AM 84.2 °F 93.8 °F 76.8 °F 78% 29.88 in 10.0 mi SW 4.6 mph - N/A   Partly Cloudy
5:55 AM 82.8 °F 91.3 °F 76.8 °F 82% 29.89 in 10.0 mi South 3.5 mph - N/A   Partly Cloudy
6:55 AM 81.7 °F 89.2 °F 76.8 °F 85% 29.90 in 10.0 mi South 4.6 mph - N/A   Clear
7:55 AM 83.1 °F 92.3 °F 77.2 °F 82% 29.93 in 10.0 mi WSW 3.5 mph - N/A   Clear
8:55 AM 85.3 °F 96.7 °F 77.5 °F 78% 29.94 in 10.0 mi Calm Calm - N/A   Clear
9:55 AM 88.5 °F 102.8 °F 78.4 °F 72% 29.94 in 10.0 mi SSW 4.6 mph - N/A   Clear
10:55 AM 92.1 °F 108.6 °F 78.6 °F 65% 29.94 in 10.0 mi SSW 4.6 mph - N/A   Partly Cloudy
11:55 AM 95.4 °F 112.4 °F 78.6 °F 58% 29.94 in 10.0 mi SW 4.6 mph - N/A   Clear
12:55 PM 99.7 °F 113.6 °F 75.6 °F 46% 29.94 in 10.0 mi SW 9.2 mph - N/A   Clear
1:55 PM 101.5 °F 115.4 °F 74.8 °F 43% 29.94 in 10.0 mi SW 9.2 mph - N/A   Scattered Clouds
2:55 PM 101.3 °F 111.4 °F 72.5 °F 39% 29.90 in 10.0 mi Variable 5.8 mph - N/A Thunderstorm Clear
3:36 PM 91.4 °F 98.4 °F 71.6 °F 52% 29.93 in 10.0 mi South 13.8 mph 23.0 mph N/A Rain , Thunderstorm Light Thunderstorms and Rain
3:43 PM 86.0 °F 93.4 °F 73.4 °F 66% 29.93 in 10.0 mi South 17.3 mph 27.6 mph N/A Rain , Thunderstorm Light Thunderstorms and Rain
3:55 PM 82.2 °F 87.1 °F 72.1 °F 71% 29.91 in 10.0 mi SSE 17.3 mph 31.1 mph 0.00 in Rain , Thunderstorm Light Thunderstorms and Rain
3:56 PM 80.6 °F 83.9 °F 69.8 °F 70% 29.91 in 10.0 mi SSE 16.1 mph 31.1 mph N/A Thunderstorm Thunderstorm
4:05 PM 78.8 °F - 66.2 °F 65% 29.88 in 10.0 mi SE 16.1 mph 23.0 mph N/A Thunderstorm Partly Cloudy
4:55 PM 79.3 °F - 70.0 °F 73% 29.88 in 10.0 mi Variable 4.6 mph - 0.00 in   Clear
5:55 PM 81.5 °F 84.6 °F 68.9 °F 65% 29.84 in 10.0 mi West 10.4 mph - N/A   Clear
6:55 PM 82.8 °F 86.4 °F 69.3 °F 64% 29.91 in 10.0 mi Calm Calm - N/A   Clear
7:55 PM 80.2 °F 83.9 °F 71.4 °F 74% 29.94 in 10.0 mi Variable 5.8 mph - N/A   Partly Cloudy
8:55 PM 77.0 °F - 71.1 °F 82% 29.97 in 10.0 mi South 6.9 mph - N/A   Clear
9:55 PM 78.6 °F - 66.7 °F 67% 29.98 in 10.0 mi SSW 8.1 mph - N/A   Clear
10:55 PM 79.0 °F - 63.0 °F 58% 29.99 in 10.0 mi SW 11.5 mph - N/A   Clear
11:55 PM 79.0 °F - 62.8 °F 57% 29.97 in 10.0 mi WSW 13.8 mph - N/A   Clear